STARLINK-38021, 69725

Orbit data source: Space-Track

STARLINK-38021, 69725 is a payload satellite owned by SpaceX/Seattle (US) in SSO that was launched on Sun, 28 Jun 2026 UTC via an FALCON 9 launch vehicle from the Air Force Western Test Range (AFWTR). Payload-class satellites include a variety of spacecraft equipped with specific instruments for various scientific and technological missions. These include communications satellites like Starlink; space stations such as the ISS; scientific satellites like the Hubble; Earth observation satellites from companies like Planet Labs, Umbra, and HawkEye 360; GPS; miniature CubeSats for education and research; and military/defense satellites.

Loading next visibility...
Identifier
69725, 2026-147X
Orbit
SSO
Country
Flag of USUS
Related business
Manufacturer
SpaceX/Seattle
Mission
Operational spacecraft
Bus & Motor
STARLINK V2MO, Unknown motor
Mass
575 kg wet, ~530 kg dry
Launch date (UTC)
2026-06-28 (2 weeks ago)
Launch vehicle
FALCON 9
Launch site
Air Force Western Test Range (AFWTR)
Object type
Payload
Rocket body
Debris
Shape & HBR
Unknown shape, 17.7 m
Radar Cross Section
Large (>1 m²)

Expand to show TLE details & history
Last TLE update: 8 hours ago

TLE from 8 hours ago
0 STARLINK-38021
1 69725U 26147X   26193.05161420  .00290855  00000-0  14622-2 0  9995
2 69725  97.2858 229.2953 0000081  94.1595 265.9683 15.80917671  3360
Epoch: 2026-07-12T01:14Z
TLE epoch observation values (Epoch: 2026-07-12T01:14:19.466Z)
Latitude
-0.00001°
Longitude
-79.24184°
Altitude
331.024 km
Speed
7.71 km/s
True Right ascension
15h 17m 10s
True Declination
0° 00' 00"
Sunlit
Object was in full shadow at epoch
Visualization orbit readout
Latitude
Unknown
Longitude
Unknown
Altitude
Unknown
Speed
Unknown
Apparent Right ascension
Unknown
Apparent Declination
Unknown
Sunlit
N/A
Visualization observer readout
Local Sidereal Time
21:07:16
Azimuth
Unknown
Elevation
Unknown
Doppler factor
Unknown
Orbital elements
Apogee altitude
324.778 km
Perigee altitude
324.67 km
Semi-major axis
6,702.861 km
Eccentricity
0.00001
Inclination
97.2858°
RAAN
229.2953°
Arg. of periapsis
94.1595°
True anomaly
265.96737°
Mean anomaly
265.9683°
Eccentric anomaly
265.96784°
Mean motion
3.95506 °/min
Orbital period
91.02 mins
BSTAR
0.0014622
Loading maneuver chart data...
Computing Atmospheric mass density...
Loading historical data...
Loading historical data...
Loading historical data...
Loading historical data...
Loading historical data...
Loading historical data...
Loading historical data...

Documentation

Showing up to 5 results
|